Regional Weather Roundup
Issued by NWS

Home | Current Version | Previous Version | Text Only | Print | Product List | Glossary Off
Versions: 1 2 3 4 5 6 7 8 9 10 11 12 13 14 15 16 17 18 19 20 21 22 23 24 25 26 27 28 29 30 31 32 33 34 35 36 37 38 39 40 41 42 43 44 45 46 47 48 49 50

000
ASUS45 KBOU 021407
RWRCO

WEATHER ROUNDUP FOR COLORADO
NATIONAL WEATHER SERVICE DENVER/BOULDER CO
800 AM MDT TUE JUN 02 2015

NOTE: "FAIR" INDICATES FEW OR NO CLOUDS BELOW 12000 FEET WITH NO
SIGNIFICANT WEATHER AND/OR OBSTRUCTIONS TO VISIBILITY.

COZ001>005-013-030-031-021500-
...NORTHWEST COLORADO...

CITY           SKY/WX    TMP DP  RH WIND       PRES   REMARKS
CRAIG          SUNNY     55  46  71 CALM      30.08S
HAYDEN         SUNNY     55  39  54 E9        30.09S
MEEKER         SUNNY     55  37  50 E8        30.10S
MOUNT WERNER   NOT AVBL
STEAMBOAT SPGS SUNNY     49  40  69 CALM      30.12R
WALDEN         SUNNY     52  37  58 SE3       30.18S
$$

COZ006>008-011-021500-
...WEST CENTRAL VALLEYS...

CITY           SKY/WX    TMP DP  RH WIND       PRES   REMARKS
GRAND JUNCTION SUNNY     70  28  21 SE14      30.01S
MONTROSE       SUNNY     67  32  27 E8        30.12R
EAGLE          MOSUNNY   61  52  72 CALM      30.17S
RIFLE          SUNNY     57  43  59 CALM      30.07S
DELTA          SUNNY     68  34  28 NE3       30.08S
NUCLA          SUNNY     64  30  27 E6        30.16S
$$

COZ017>023-064>068-021500-
...SOUTHWEST COLORADO...

CITY           SKY/WX    TMP DP  RH WIND       PRES   REMARKS
DURANGO        SUNNY     56  40  55 NE5       30.22R
CORTEZ         SUNNY     59  36  42 E3        30.15S
PAGOSA SPRINGS SUNNY     58  38  48 CALM      30.28S
TELLURIDE      SUNNY     56  24  29 CALM      30.33S
WOLF CREEK PAS NOT AVBL
$$

COZ009-010-012-014-032>034-037-058>063-021500-
...CENTRAL COLORADO...

CITY           SKY/WX    TMP DP  RH WIND       PRES   REMARKS
ASPEN          MOSUNNY   57  32  38 S9        30.19S
BUENA VISTA    MOSUNNY   51  36  56 N3        30.26S
COPPER MTN     SUNNY     46  14  27 SW8G16    30.46R
BERTHOUD PASS  FAIR      37  32  81 MISG      30.47S
COTTONWOOD PAS NOT AVBL
GUNNISON       MOSUNNY   43  37  81 CALM      30.30S
KREMMLING      SUNNY     50  39  66 CALM      30.21R
LEADVILLE      MOSUNNY   44  31  60 CALM      30.33S
MONARCH PASS   MOSUNNY   41  28  60 SW17      30.58R
SALIDA         MOSUNNY   55  39  53 NW7       30.30S
SUNLIGHT       SUNNY     48  27  43 CALM      30.40R
WILKERSON PASS SUNNY     45  32  61 SW7       30.44S
$$

COZ069>075-021500-
...SAN LUIS VALLEY/SANGRE DE CRISTO MOUNTAINS...

CITY           SKY/WX    TMP DP  RH WIND       PRES   REMARKS
ALAMOSA        SUNNY     53  40  61 SW5       30.25R
LA VETA PASS   MOSUNNY  N/A N/A N/A MISG      30.38R
SAGUACHE       MOSUNNY   52  39  62 NW10      30.28S
$$

COZ035-036-038>040-021500-
...NORTHERN COLORADO FRONT RANGE...

CITY           SKY/WX    TMP DP  RH WIND       PRES   REMARKS
DENVER INTL AP MOSUNNY   60  53  77 W8        30.00F
DMNS CITY PARK   N/A     65  52  62 S2        30.00F
AURORA         MOSUNNY   61  52  73 W2        30.03S
FRONT RANGE AP MOSUNNY   63  55  77 W9        30.01F
ERIE MUNI ARPT SUNNY     60  53  78 CALM      30.00S
BOULDER MUN AP SUNNY     61  52  72 CALM      30.00S
CENTENNIAL     MOSUNNY   65  46  50 W12       30.03F
BROOMFIELD     MOSUNNY   59  54  82 CALM      30.03S
FORT COLLINS   SUNNY     57  54  88 N5        30.00F
LONGMONT       SUNNY     65  51  59 CALM      30.01F
$$

COZ041-046-047-076>085-087-088-021500-
...PIKES PEAK/PALMER DIVIDE AND SOUTHERN FOOTHILLS...

CITY           SKY/WX    TMP DP  RH WIND       PRES   REMARKS
COLO. SPRINGS  PTSUNNY   67  50  54 N3        30.07S
A. F. ACADEMY  MOSUNNY   59  45  58 SE2       30.09R
ELLICOTT       PTSUNNY  N/A N/A N/A W7        30.06R
FALCON         PTSUNNY   66  42  40 SW5       30.12S
FORT CARSON    SUNNY     62  49  61 NW3       30.04S
LIMON          SUNNY     62  52  69 S7        30.03R
MONUMENT HILL  PTSUNNY   66  36  32 SE16      30.12R
TRINIDAD       SUNNY     69  45  41 W14       30.07R
$$

COZ042>045-048>051-090-091-021500-
...NORTHEAST COLORADO...

CITY           SKY/WX    TMP DP  RH WIND       PRES   REMARKS
GREELEY ARPT   MOSUNNY   61  55  82 NW5       29.98S
AKRON          SUNNY     63  59  87 S15       29.96S
BURLINGTON     CLOUDY    63  59  87 SE18      29.96F
WRAY           SUNNY     66  56  68 SE8       29.94R
STERLING       SUNNY     64  57  77 S10       29.93F
HOLYOKE        NOT AVBL
FORT MORGAN    SUNNY     63  57  81 S7        29.96S
$$

COZ086-089-092>099-021500-
...SOUTHEAST COLORADO...

CITY           SKY/WX    TMP DP  RH WIND       PRES   REMARKS
PUEBLO         MOSUNNY   62  52  69 SW3       29.99S
LA JUNTA       SUNNY     64  56  75 MISG      29.97F
LAMAR          SUNNY     66  59  78 E6        29.93F
SPRINGFIELD      N/A     71  54  54 NW6       29.99R
$$



USA.gov is the U.S. government's official web portal to all federal, state and local government web resources and services.